{"data":{"norad_id":48398,"epoch":"2026-05-24T23:03:56.570688Z","epoch_age_seconds":78346,"freshness":"FRESH","line1":"1 48398U 21038AX  26144.96107142  .00024790  00000+0  11774-2 0  9996","line2":"2 48398  53.0705 350.8978 0003079  28.4916 331.6246 15.19110830280142","mean_motion":15.1911083,"eccentricity":0.0003079,"inclination_deg":53.0705,"raan_deg":350.8978,"arg_perigee_deg":28.4916,"mean_anomaly_deg":331.6246,"bstar":0.0011774,"rev_number":28014,"period_min":94.792293726192,"perigee_km":506.40618012406,"apogee_km":510.64698755899,"semimajor_km":6886.6635838415,"source":"CELESTRAK","updated_at":"2026-05-25T13:38:16.711090Z"}}